sat.trackr.live / text

‹ back to catalog

ONEWEB-0586

NORAD 54653 · 2022-166M

PAYLOAD ACTIVE UNKNOWN

§ Identity

Operator
Country
UK
Launch date
2022-12-08
Launch site
AFETR
Launch vehicle
Mass (kg)
RCS (m²)

Purposes: comms

External: N2YO · Heavens-Above · Gunter

§ Orbital elements

Epoch: 2026-09-20T04:46:50.365056Z

Period
108.94 min
Inclination
87.9281°
Eccentricity
0.0002318
Mean motion
13.21824662 rev/d
Perigee alt
1,176.0 km
Apogee alt
1,179.5 km
Semi-major
7,555.9 km
B*
-9.2035e-5
RAAN
225.0826°
Arg perigee
83.0095°
Mean anomaly
277.1303°
Rev number
18,407

§ Raw data

ONEWEB-05861 54653U 22166M   26263.19919404 -.00000025  00000+0 -92035-4 0  99972 54653  87.9281 225.0826 0002318  83.0095 277.1303 13.21824662184072

JSON: /api/v1/satellites/54653 · /tle

For live sub-satellite position, see the globe view (requires WebGL).

§ Visibility from observer

Set your observer location to see the next 7 days of passes ≥ 10°. The values pass through the URL so the page stays shareable.

No JS? Fill the form by hand. The geolocation button needs JavaScript.